Hourly Weather Kozuby

Today, 19 January, Tuesday

Time Temperature Precipitation Wind Pressure Humidity
00:00 -12°C° 0 mm 3 mps 753 mmHg 93%
01:00 -12°C° 0 mm 3 mps 752 mmHg 91%
02:00 -10°C° 0.3 mm 3 mps 752 mmHg 93%
03:00 -9°C° 0.3 mm 3 mps 751 mmHg 94%
04:00 -9°C° 0.3 mm 4 mps 751 mmHg 95%
05:00 -7°C° 0.4 mm 3 mps 751 mmHg 96%
06:00 -5°C° 0.4 mm 3 mps 750 mmHg 96%
07:00 -4°C° 0.4 mm 3 mps 750 mmHg 97%
08:00 -4°C° 0.3 mm 3 mps 750 mmHg 97%
09:00 -2°C° 0.3 mm 3 mps 750 mmHg 98%
10:00 -1°C° 0.3 mm 2 mps 750 mmHg 98%
11:00 -1°C° 0.2 mm 3 mps 750 mmHg 98%
12:00 0°C° 0.2 mm 3 mps 749 mmHg 99%
13:00 0°C° 0.2 mm 3 mps 749 mmHg 99%
14:00 0°C° 0 mm 3 mps 748 mmHg 99%
15:00 0°C° 0 mm 3 mps 748 mmHg 98%
16:00 0°C° 0 mm 3 mps 748 mmHg 97%
17:00 -1°C° 0.1 mm 4 mps 747 mmHg 97%
18:00 -1°C° 0.1 mm 4 mps 747 mmHg 97%
19:00 -2°C° 0.1 mm 5 mps 747 mmHg 97%
20:00 -2°C° 0.1 mm 5 mps 746 mmHg 97%
21:00 -2°C° 0.1 mm 5 mps 746 mmHg 97%
22:00 -2°C° 0.1 mm 5 mps 746 mmHg 96%
23:00 -2°C° 0.1 mm 5 mps 745 mmHg 97%

Tomorrow, 20 January, Wednesday

Time Temperature Precipitation Wind Pressure Humidity
00:00 -2°C° 0.1 mm 4 mps 745 mmHg 97%
01:00 -2°C° 0.1 mm 4 mps 745 mmHg 98%
02:00 -1°C° 0.6 mm 4 mps 745 mmHg 98%
03:00 -1°C° 0.6 mm 4 mps 744 mmHg 98%
04:00 -1°C° 0.6 mm 5 mps 744 mmHg 98%
05:00 0°C° 0.2 mm 5 mps 744 mmHg 98%
06:00 0°C° 0.2 mm 5 mps 744 mmHg 98%
07:00 -1°C° 0.2 mm 6 mps 745 mmHg 98%
08:00 0°C° 0 mm 5 mps 745 mmHg 98%
09:00 0°C° 0 mm 5 mps 745 mmHg 97%
10:00 0°C° 0 mm 5 mps 745 mmHg 97%
11:00 0°C° 0 mm 5 mps 745 mmHg 97%
12:00 0°C° 0 mm 5 mps 745 mmHg 98%
13:00 -1°C° 0 mm 6 mps 745 mmHg 99%
14:00 -1°C° 0 mm 6 mps 745 mmHg 95%
15:00 0°C° 0 mm 5 mps 745 mmHg 92%
16:00 0°C° 0 mm 5 mps 745 mmHg 89%
17:00 0°C° 0 mm 5 mps 745 mmHg 87%
18:00 0°C° 0 mm 5 mps 745 mmHg 85%
19:00 0°C° 0 mm 5 mps 745 mmHg 84%
20:00 0°C° 0 mm 5 mps 745 mmHg 83%
21:00 0°C° 0 mm 5 mps 745 mmHg 82%
22:00 -1°C° 0 mm 5 mps 745 mmHg 81%
23:00 -1°C° 0 mm 5 mps 745 mmHg 81%

Day after tomorrow, 21 January, Thursday

Time Temperature Precipitation Wind Pressure Humidity
00:00 -1°C° 0 mm 5 mps 744 mmHg 81%
01:00 0°C° 0 mm 5 mps 744 mmHg 81%
02:00 0°C° 0 mm 5 mps 744 mmHg 81%
03:00 0°C° 0 mm 5 mps 744 mmHg 81%
04:00 0°C° 0 mm 5 mps 744 mmHg 80%
05:00 0°C° 0 mm 5 mps 744 mmHg 82%
06:00 0°C° 0 mm 5 mps 744 mmHg 84%
07:00 0°C° 0 mm 5 mps 744 mmHg 86%
08:00 -1°C° 0 mm 6 mps 744 mmHg 87%
09:00 +1°C° 0 mm 6 mps 744 mmHg 89%
10:00 +1°C° 0 mm 6 mps 744 mmHg 90%
11:00 +1°C° 0 mm 6 mps 744 mmHg 90%
12:00 +2°C° 0 mm 6 mps 744 mmHg 91%
13:00 +2°C° 0 mm 6 mps 743 mmHg 91%
14:00 +1°C° 0 mm 5 mps 743 mmHg 91%
15:00 +1°C° 0 mm 5 mps 742 mmHg 91%
16:00 0°C° 0 mm 4 mps 742 mmHg 91%
17:00 0°C° 0 mm 4 mps 742 mmHg 89%
18:00 0°C° 0 mm 5 mps 742 mmHg 88%
19:00 0°C° 0 mm 5 mps 742 mmHg 87%
20:00 0°C° 0 mm 5 mps 741 mmHg 87%
21:00 -1°C° 0 mm 5 mps 741 mmHg 87%
22:00 -1°C° 0 mm 4 mps 741 mmHg 88%
23:00 -1°C° 0 mm 5 mps 741 mmHg 86%

22 January, Friday

Time Temperature Precipitation Wind Pressure Humidity
00:00 -1°C° 0 mm 5 mps 741 mmHg 84%
01:00 0°C° 0 mm 5 mps 740 mmHg 81%
02:00 0°C° 0 mm 5 mps 740 mmHg 84%
03:00 0°C° 0 mm 5 mps 739 mmHg 86%
04:00 +1°C° 0 mm 5 mps 738 mmHg 88%
05:00 0°C° 0 mm 5 mps 738 mmHg 88%
06:00 0°C° 0 mm 4 mps 738 mmHg 88%
07:00 0°C° 0 mm 4 mps 737 mmHg 88%
08:00 +1°C° 0 mm 5 mps 737 mmHg 88%
09:00 +1°C° 0 mm 5 mps 736 mmHg 88%
10:00 +1°C° 0 mm 6 mps 736 mmHg 89%
11:00 +2°C° 0 mm 5 mps 735 mmHg 90%
12:00 +2°C° 0 mm 5 mps 735 mmHg 91%
13:00 +2°C° 0 mm 5 mps 735 mmHg 92%
14:00 +1°C° 0 mm 5 mps 735 mmHg 91%
15:00 +1°C° 0 mm 5 mps 736 mmHg 90%
16:00 +1°C° 0 mm 5 mps 736 mmHg 89%
17:00 +1°C° 0 mm 5 mps 737 mmHg 89%
18:00 +1°C° 0 mm 5 mps 738 mmHg 89%
19:00 +1°C° 0 mm 5 mps 739 mmHg 90%
20:00 0°C° 0 mm 4 mps 739 mmHg 90%
21:00 0°C° 0 mm 4 mps 739 mmHg 90%
22:00 0°C° 0 mm 3 mps 740 mmHg 91%
23:00 0°C° 0 mm 3 mps 740 mmHg 91%

23 January, Saturday

Time Temperature Precipitation Wind Pressure Humidity
00:00 0°C° 0 mm 3 mps 741 mmHg 92%
01:00 0°C° 0 mm 3 mps 741 mmHg 93%
02:00 0°C° 0 mm 3 mps 741 mmHg 93%
03:00 0°C° 0 mm 3 mps 742 mmHg 92%
04:00 +1°C° 0 mm 2 mps 742 mmHg 92%
05:00 +1°C° 0 mm 2 mps 742 mmHg 92%
06:00 +1°C° 0 mm 2 mps 742 mmHg 91%
07:00 +1°C° 0 mm 2 mps 742 mmHg 91%
08:00 +1°C° 0 mm 2 mps 742 mmHg 90%
09:00 +1°C° 0 mm 2 mps 742 mmHg 90%
10:00 +1°C° 0 mm 2 mps 742 mmHg 89%
11:00 +2°C° 0 mm 2 mps 742 mmHg 88%
12:00 +2°C° 0 mm 2 mps 742 mmHg 88%
13:00 +2°C° 0 mm 2 mps 742 mmHg 87%
14:00 +2°C° 0 mm 2 mps 742 mmHg 88%
15:00 0°C° 0 mm 3 mps 742 mmHg 90%
16:00 0°C° 0 mm 3 mps 741 mmHg 91%
17:00 0°C° 0 mm 3 mps 741 mmHg 92%
18:00 0°C° 0 mm 3 mps 741 mmHg 92%
19:00 -1°C° 0 mm 3 mps 741 mmHg 92%
20:00 -2°C° 0 mm 4 mps 741 mmHg 91%
21:00 -2°C° 0 mm 4 mps 741 mmHg 90%
22:00 -2°C° 0 mm 4 mps 740 mmHg 90%
23:00 -2°C° 0 mm 4 mps 740 mmHg 90%

24 January, Sunday

Time Temperature Precipitation Wind Pressure Humidity
00:00 -2°C° 0 mm 4 mps 739 mmHg 91%
01:00 -2°C° 0 mm 4 mps 739 mmHg 92%
02:00 -1°C° 0 mm 3 mps 739 mmHg 92%
03:00 -1°C° 0 mm 3 mps 738 mmHg 92%
04:00 -1°C° 0 mm 3 mps 738 mmHg 92%
05:00 -1°C° 0 mm 3 mps 737 mmHg 91%
06:00 -1°C° 0 mm 3 mps 737 mmHg 90%
07:00 -2°C° 0 mm 4 mps 737 mmHg 89%
08:00 -2°C° 0 mm 4 mps 737 mmHg 86%
09:00 -1°C° 0 mm 4 mps 737 mmHg 83%
10:00 -1°C° 0 mm 4 mps 737 mmHg 81%
11:00 +1°C° 0 mm 3 mps 737 mmHg 80%
12:00 +2°C° 0 mm 2 mps 736 mmHg 80%
13:00 +3°C° 0 mm 1 mps 736 mmHg 80%
14:00 +3°C° 0 mm 1 mps 736 mmHg 82%
15:00 +2°C° 0 mm 1 mps 736 mmHg 84%
16:00 +2°C° 0 mm 1 mps 737 mmHg 86%
17:00 +2°C° 0.1 mm 1 mps 737 mmHg 89%
18:00 -1°C° 0.1 mm 2 mps 737 mmHg 92%
19:00 -1°C° 0.1 mm 3 mps 737 mmHg 94%
20:00 -2°C° 0.3 mm 4 mps 737 mmHg 95%
21:00 -2°C° 0.3 mm 5 mps 738 mmHg 96%
22:00 -3°C° 0.3 mm 6 mps 738 mmHg 97%
23:00 -3°C° 0.2 mm 6 mps 738 mmHg 95%
Show more